Time,TemperatureF,DewpointF,PressureIn,WindDirection,WindDirectionDegrees,WindSpeedMPH,WindSpeedGustMPH,Humidity,HourlyPrecipIn,Conditions,Clouds,dailyrainin,SoftwareType,DateUTC
2013-05-12 00:12:00,54.1,51.0,30.04,West,266,1.0,3.0,90,0.00,,,0.00,weatherlink.com 1.10,2013-05-12 04:12:00,
2013-05-12 00:27:00,53.0,50.0,30.04,West,262,2.0,5.0,89,0.00,,,0.00,weatherlink.com 1.10,2013-05-12 04:27:00,
2013-05-12 00:42:00,52.0,50.0,30.05,NW,322,0.0,2.0,91,0.00,,,0.00,weatherlink.com 1.10,2013-05-12 04:42:00,
2013-05-12 00:57:00,51.5,49.0,30.04,SE,128,2.0,7.0,91,0.00,,,0.00,weatherlink.com 1.10,2013-05-12 04:57:00,
2013-05-12 01:12:00,50.8,48.0,30.04,SSE,163,1.0,3.0,91,0.00,,,0.00,weatherlink.com 1.10,2013-05-12 05:12:00,
2013-05-12 01:27:00,50.5,49.0,30.04,SSW,202,0.0,0.0,93,0.00,,,0.00,weatherlink.com 1.10,2013-05-12 05:27:00,
2013-05-12 01:42:00,50.4,48.0,30.04,South,191,0.0,0.0,90,0.00,,,0.00,weatherlink.com 1.10,2013-05-12 05:42:00,
2013-05-12 01:57:00,50.5,48.0,30.04,SE,127,0.0,0.0,91,0.00,,,0.00,weatherlink.com 1.10,2013-05-12 05:57:00,
2013-05-12 02:12:00,49.9,47.0,30.04,SSE,150,0.0,1.0,91,0.00,,,0.00,weatherlink.com 1.10,2013-05-12 06:12:00,
2013-05-12 02:27:00,49.6,47.0,30.04,West,280,0.0,2.0,92,0.00,,,0.00,weatherlink.com 1.10,2013-05-12 06:27:00,
2013-05-12 02:42:00,49.3,47.0,30.05,NNW,337,2.0,2.0,92,0.00,,,0.00,weatherlink.com 1.10,2013-05-12 06:42:00,
2013-05-12 02:57:00,49.0,47.0,30.05,NNE,18,0.0,3.0,91,0.00,,,0.00,weatherlink.com 1.10,2013-05-12 06:57:00,
2013-05-12 03:12:00,48.4,46.0,30.04,ENE,71,0.0,2.0,91,0.00,,,0.00,weatherlink.com 1.10,2013-05-12 07:12:00,
2013-05-12 03:27:00,47.9,46.0,30.04,WNW,301,0.0,1.0,91,0.00,,,0.00,weatherlink.com 1.10,2013-05-12 07:27:00,
2013-05-12 03:42:00,47.4,45.0,30.04,SSW,203,0.0,0.0,91,0.00,,,0.00,weatherlink.com 1.10,2013-05-12 07:42:00,
2013-05-12 03:57:00,47.0,45.0,30.04,SSW,203,0.0,0.0,91,0.00,,,0.00,weatherlink.com 1.10,2013-05-12 07:57:00,
2013-05-12 04:12:00,46.9,44.0,30.04,East,95,0.0,1.0,89,0.00,,,0.00,weatherlink.com 1.10,2013-05-12 08:12:00,
2013-05-12 04:27:00,47.0,44.0,30.04,SE,146,0.0,3.0,89,0.00,,,0.00,weatherlink.com 1.10,2013-05-12 08:27:00,
2013-05-12 04:42:00,47.1,44.0,30.04,SSE,167,2.0,2.0,87,0.00,,,0.00,weatherlink.com 1.10,2013-05-12 08:42:00,
2013-05-12 04:57:00,47.4,43.0,30.04,WNW,290,0.0,2.0,86,0.00,,,0.00,weatherlink.com 1.10,2013-05-12 08:57:00,
2013-05-12 05:12:00,47.3,44.0,30.05,West,280,0.0,3.0,88,0.00,,,0.00,weatherlink.com 1.10,2013-05-12 09:12:00,
2013-05-12 05:27:00,47.0,44.0,30.05,West,277,1.0,2.0,88,0.00,,,0.00,weatherlink.com 1.10,2013-05-12 09:27:00,
2013-05-12 05:42:00,46.9,44.0,30.05,WSW,253,1.0,3.0,90,0.00,,,0.00,weatherlink.com 1.10,2013-05-12 09:42:00,
2013-05-12 05:57:00,46.7,44.0,30.05,West,279,1.0,3.0,90,0.00,,,0.00,weatherlink.com 1.10,2013-05-12 09:57:00,
2013-05-12 06:12:00,46.6,44.0,30.05,SW,226,0.0,3.0,90,0.00,,,0.00,weatherlink.com 1.10,2013-05-12 10:12:00,
2013-05-12 06:27:00,46.6,44.0,30.06,WNW,290,1.0,2.0,90,0.00,,,0.00,weatherlink.com 1.10,2013-05-12 10:27:00,
2013-05-12 06:43:00,46.3,44.0,30.06,WSW,239,0.0,2.0,92,0.00,,,0.00,weatherlink.com 1.10,2013-05-12 10:43:00,
2013-05-12 06:58:00,46.4,45.0,30.07,WSW,258,0.0,1.0,93,0.00,,,0.00,weatherlink.com 1.10,2013-05-12 10:58:00,
2013-05-12 07:13:00,46.8,45.0,30.07,WSW,258,0.0,1.0,92,0.00,,,0.00,weatherlink.com 1.10,2013-05-12 11:13:00,
2013-05-12 07:28:00,47.3,45.0,30.07,SE,140,0.0,2.0,91,0.00,,,0.00,weatherlink.com 1.10,2013-05-12 11:28:00,
2013-05-12 07:43:00,47.9,45.0,30.08,SSE,154,0.0,2.0,89,0.00,,,0.00,weatherlink.com 1.10,2013-05-12 11:43:00,
2013-05-12 07:58:00,48.9,46.0,30.08,East,80,0.0,0.0,88,0.00,,,0.00,weatherlink.com 1.10,2013-05-12 11:58:00,
2013-05-12 08:13:00,49.6,45.0,30.09,NE,46,0.0,3.0,85,0.00,,,0.00,weatherlink.com 1.10,2013-05-12 12:13:00,
2013-05-12 08:28:00,49.8,46.0,30.09,NNW,347,1.0,2.0,85,0.00,,,0.00,weatherlink.com 1.10,2013-05-12 12:28:00,
2013-05-12 08:43:00,50.3,46.0,30.10,NW,306,2.0,4.0,84,0.00,,,0.00,weatherlink.com 1.10,2013-05-12 12:43:00,
2013-05-12 08:58:00,51.0,46.0,30.10,NNW,332,2.0,3.0,83,0.00,,,0.00,weatherlink.com 1.10,2013-05-12 12:58:00,
2013-05-12 09:13:00,51.7,46.0,30.11,WNW,295,2.0,5.0,80,0.00,,,0.00,weatherlink.com 1.10,2013-05-12 13:13:00,
2013-05-12 09:28:00,51.7,45.0,30.11,WNW,292,1.0,4.0,77,0.00,,,0.00,weatherlink.com 1.10,2013-05-12 13:28:00,
2013-05-12 09:43:00,51.9,45.0,30.11,WNW,295,1.0,4.0,76,0.00,,,0.00,weatherlink.com 1.10,2013-05-12 13:43:00,
2013-05-12 09:58:00,52.4,44.0,30.10,NNW,345,2.0,5.0,74,0.00,,,0.00,weatherlink.com 1.10,2013-05-12 13:58:00,
2013-05-12 10:13:00,53.3,43.0,30.10,WNW,283,2.0,3.0,68,0.00,,,0.00,weatherlink.com 1.10,2013-05-12 14:13:00,
2013-05-12 10:28:00,53.3,42.0,30.10,WNW,289,2.0,4.0,65,0.00,,,0.00,weatherlink.com 1.10,2013-05-12 14:28:00,
2013-05-12 10:43:00,54.0,42.0,30.10,NNW,328,3.0,4.0,64,0.00,,,0.00,weatherlink.com 1.10,2013-05-12 14:43:00,
2013-05-12 10:58:00,54.1,41.0,30.11,WNW,283,3.0,7.0,62,0.00,,,0.00,weatherlink.com 1.10,2013-05-12 14:58:00,
2013-05-12 11:13:00,54.4,40.0,30.11,WNW,294,1.0,5.0,59,0.00,,,0.00,weatherlink.com 1.10,2013-05-12 15:13:00,
2013-05-12 11:28:00,55.6,39.0,30.11,WNW,283,3.0,7.0,55,0.00,,,0.00,weatherlink.com 1.10,2013-05-12 15:28:00,
2013-05-12 11:43:00,56.5,38.0,30.11,WNW,301,2.0,4.0,51,0.00,,,0.00,weatherlink.com 1.10,2013-05-12 15:43:00,
2013-05-12 11:58:00,58.0,37.0,30.12,SW,226,1.0,4.0,46,0.00,,,0.00,weatherlink.com 1.10,2013-05-12 15:58:00,
2013-05-12 12:13:00,59.0,40.0,30.12,NW,311,4.0,4.0,49,0.00,,,0.00,weatherlink.com 1.10,2013-05-12 16:13:00,
2013-05-12 12:28:00,58.8,37.0,30.12,NNW,328,2.0,6.0,45,0.00,,,0.00,weatherlink.com 1.10,2013-05-12 16:28:00,
2013-05-12 12:43:00,60.0,37.0,30.12,WNW,295,1.0,4.0,43,0.00,,,0.00,weatherlink.com 1.10,2013-05-12 16:43:00,
2013-05-12 12:58:00,59.5,32.0,30.12,NW,314,4.0,6.0,36,0.00,,,0.00,weatherlink.com 1.10,2013-05-12 16:58:00,
2013-05-12 13:13:00,60.0,36.0,30.11,NW,314,1.0,5.0,41,0.00,,,0.00,weatherlink.com 1.10,2013-05-12 17:13:00,
2013-05-12 13:28:00,59.8,34.0,30.12,WNW,293,5.0,5.0,38,0.00,,,0.00,weatherlink.com 1.10,2013-05-12 17:28:00,
2013-05-12 13:43:00,60.3,37.0,30.12,WNW,302,3.0,5.0,42,0.00,,,0.00,weatherlink.com 1.10,2013-05-12 17:43:00,
2013-05-12 13:58:00,59.9,32.0,30.12,NNE,13,2.0,5.0,35,0.00,,,0.00,weatherlink.com 1.10,2013-05-12 17:58:00,
2013-05-12 14:13:00,59.8,33.0,30.11,WNW,293,2.0,7.0,37,0.00,,,0.00,weatherlink.com 1.10,2013-05-12 18:13:00,
2013-05-12 14:28:00,60.4,37.0,30.11,WNW,293,2.0,4.0,42,0.00,,,0.00,weatherlink.com 1.10,2013-05-12 18:28:00,
2013-05-12 14:43:00,60.6,34.0,30.11,WNW,300,3.0,4.0,37,0.00,,,0.00,weatherlink.com 1.10,2013-05-12 18:43:00,
2013-05-12 14:58:00,60.7,36.0,30.11,WNW,295,2.0,4.0,40,0.00,,,0.00,weatherlink.com 1.10,2013-05-12 18:58:00,
2013-05-12 15:13:00,60.7,33.0,30.10,ENE,58,4.0,7.0,36,0.00,,,0.00,weatherlink.com 1.10,2013-05-12 19:13:00,
2013-05-12 15:28:00,60.6,38.0,30.11,SW,236,2.0,5.0,43,0.00,,,0.00,weatherlink.com 1.10,2013-05-12 19:28:00,
2013-05-12 15:43:00,59.9,35.0,30.10,NW,307,2.0,4.0,40,0.00,,,0.00,weatherlink.com 1.10,2013-05-12 19:43:00,
2013-05-12 15:58:00,58.9,33.0,30.10,WNW,294,1.0,9.0,38,0.00,,,0.00,weatherlink.com 1.10,2013-05-12 19:58:00,
2013-05-12 16:13:00,57.9,35.0,30.09,NW,321,4.0,6.0,42,0.00,,,0.00,weatherlink.com 1.10,2013-05-12 20:13:00,
2013-05-12 16:28:00,57.8,34.0,30.09,NNW,336,1.0,5.0,41,0.00,,,0.00,weatherlink.com 1.10,2013-05-12 20:28:00,
2013-05-12 16:43:00,57.5,34.0,30.10,NNW,328,2.0,5.0,41,0.00,,,0.00,weatherlink.com 1.10,2013-05-12 20:43:00,
2013-05-12 16:58:00,57.0,34.0,30.10,NE,49,3.0,8.0,42,0.00,,,0.00,weatherlink.com 1.10,2013-05-12 20:58:00,
2013-05-12 17:14:00,57.1,33.0,30.11,WNW,284,1.0,4.0,41,0.00,,,0.00,weatherlink.com 1.10,2013-05-12 21:14:00,
2013-05-12 17:29:00,56.2,32.0,30.12,WNW,293,2.0,6.0,40,0.00,,,0.00,weatherlink.com 1.10,2013-05-12 21:29:00,
2013-05-12 17:44:00,56.2,31.0,30.13,WNW,298,2.0,6.0,39,0.00,,,0.00,weatherlink.com 1.10,2013-05-12 21:44:00,
2013-05-12 17:59:00,55.7,33.0,30.13,WNW,290,3.0,4.0,42,0.00,,,0.00,weatherlink.com 1.10,2013-05-12 21:59:00,
2013-05-12 18:14:00,55.3,34.0,30.13,West,281,1.0,5.0,45,0.00,,,0.00,weatherlink.com 1.10,2013-05-12 22:14:00,
2013-05-12 18:29:00,54.9,31.0,30.13,WNW,285,1.0,4.0,41,0.00,,,0.00,weatherlink.com 1.10,2013-05-12 22:29:00,
2013-05-12 18:44:00,54.5,33.0,30.14,NNW,337,2.0,3.0,45,0.00,,,0.00,weatherlink.com 1.10,2013-05-12 22:44:00,
2013-05-12 18:59:00,54.1,32.0,30.14,North,356,3.0,4.0,43,0.00,,,0.00,weatherlink.com 1.10,2013-05-12 22:59:00,
2013-05-12 19:14:00,53.5,33.0,30.14,WNW,291,0.0,4.0,46,0.00,,,0.00,weatherlink.com 1.10,2013-05-12 23:14:00,
2013-05-12 19:29:00,52.9,34.0,30.15,NE,36,1.0,3.0,49,0.00,,,0.00,weatherlink.com 1.10,2013-05-12 23:29:00,
2013-05-12 19:44:00,52.2,34.0,30.14,ENE,67,0.0,2.0,51,0.00,,,0.00,weatherlink.com 1.10,2013-05-12 23:44:00,
2013-05-12 19:59:00,51.5,33.0,30.15,SSW,211,0.0,1.0,49,0.00,,,0.00,weatherlink.com 1.10,2013-05-12 23:59:00,
2013-05-12 20:14:00,50.4,34.0,30.16,SSW,211,0.0,1.0,54,0.00,,,0.00,weatherlink.com 1.10,2013-05-13 00:14:00,
2013-05-12 20:29:00,49.3,34.0,30.16,SSW,211,0.0,0.0,57,0.00,,,0.00,weatherlink.com 1.10,2013-05-13 00:29:00,
2013-05-12 20:44:00,48.4,34.0,30.17,ESE,118,1.0,2.0,58,0.00,,,0.00,weatherlink.com 1.10,2013-05-13 00:44:00,
2013-05-12 20:59:00,48.1,34.0,30.17,East,79,1.0,3.0,59,0.00,,,0.00,weatherlink.com 1.10,2013-05-13 00:59:00,
2013-05-12 21:14:00,47.4,34.0,30.18,SSE,163,1.0,2.0,60,0.00,,,0.00,weatherlink.com 1.10,2013-05-13 01:14:00,
2013-05-12 21:29:00,46.8,31.0,30.19,East,88,1.0,2.0,54,0.00,,,0.00,weatherlink.com 1.10,2013-05-13 01:29:00,
2013-05-12 21:44:00,46.2,30.0,30.20,SE,139,1.0,2.0,54,0.00,,,0.00,weatherlink.com 1.10,2013-05-13 01:44:00,
2013-05-12 21:59:00,45.9,31.0,30.20,SSE,155,1.0,2.0,56,0.00,,,0.00,weatherlink.com 1.10,2013-05-13 01:59:00,
2013-05-12 22:14:00,45.6,31.0,30.20,SSE,154,1.0,2.0,56,0.00,,,0.00,weatherlink.com 1.10,2013-05-13 02:14:00,
2013-05-12 22:29:00,45.5,30.0,30.21,SSE,153,0.0,1.0,56,0.00,,,0.00,weatherlink.com 1.10,2013-05-13 02:29:00,
2013-05-12 22:44:00,45.5,30.0,30.21,North,355,0.0,3.0,56,0.00,,,0.00,weatherlink.com 1.10,2013-05-13 02:44:00,
2013-05-12 22:59:00,45.3,30.0,30.21,SE,133,0.0,1.0,56,0.00,,,0.00,weatherlink.com 1.10,2013-05-13 02:59:00,
2013-05-12 23:14:00,44.7,29.0,30.22,SE,136,1.0,1.0,55,0.00,,,0.00,weatherlink.com 1.10,2013-05-13 03:14:00,
2013-05-12 23:29:00,44.3,31.0,30.22,West,260,1.0,2.0,60,0.00,,,0.00,weatherlink.com 1.10,2013-05-13 03:29:00,
2013-05-12 23:44:00,44.3,31.0,30.22,West,279,0.0,0.0,59,0.00,,,0.00,weatherlink.com 1.10,2013-05-13 03:44:00,
2013-05-12 23:59:00,43.9,30.0,30.23,West,281,0.0,2.0,59,0.00,,,0.00,weatherlink.com 1.10,2013-05-13 03:59:00,